OE7SBH-WX Weather Reports


Display with metric or nautical units.
time (UTC)temp
F
wind
direction
speed
MPH
gust
MPH
rain 1hr
in
rain 24hr
in
rain mn
in
humidity
%
barometer
mb
20260506001109 51 293 0.0 1.0 0.00 0.00 0.00 74 1015.0
20260506000023 51 315 1.0 2.0 0.00 0.00 0.00 74 1015.1
20260505235032 51 0.0 0.0 0.00 0.00 0.00 73 1015.1
20260505234027 51 267 1.0 2.0 0.00 0.00 0.00 73 1015.1
20260505233029 53 312 0.0 2.0 0.00 0.00 0.00 69 1015.2
20260505232103 52 303 2.0 2.0 0.00 0.00 0.00 71 1015.1
20260505231052 54 349 1.0 2.0 0.00 0.00 0.00 66 1015.3
20260505230021 53 319 2.0 4.0 0.00 0.00 0.00 66 1015.1
20260505225030 53 339 2.0 3.0 0.00 0.00 0.00 67 1015.1
20260505224017 55 325 1.0 2.0 0.00 0.00 0.00 62 1015.0
20260505223019 55 321 2.0 3.0 0.00 0.00 0.00 63 1015.0
20260505222021 55 314 2.0 2.0 0.00 0.00 0.00 63 1014.7
20260505221017 55 323 1.0 2.0 0.00 0.00 0.00 64 1014.8
20260505220024 55 318 1.0 2.0 0.00 0.00 0.00 64 1014.6
20260505215032 55 335 2.0 2.0 0.00 0.00 0.00 63 1014.7
20260505214027 56 338 3.0 4.0 0.00 0.00 0.00 62 1014.7
20260505213050 56 1 2.0 4.0 0.00 0.00 0.00 61 1014.6
20260505212024 57 329 2.0 3.0 0.00 0.00 0.00 59 1014.5
20260505211028 58 318 3.0 4.0 0.00 0.00 0.00 57 1014.2
20260505210033 58 308 3.0 4.0 0.00 0.00 0.00 56 1014.2
20260505205032 58 311 4.0 6.0 0.00 0.00 0.00 56 1014.0
20260505204020 59 330 2.0 6.0 0.00 0.00 0.00 56 1013.8
20260505203029 59 141 2.0 4.0 0.00 0.00 0.00 55 1013.8
20260505202017 59 123 2.0 4.0 0.00 0.00 0.00 55 1013.8
20260505201030 59 155 2.0 4.0 0.00 0.00 0.00 55 1013.7
20260505200024 60 104 1.0 2.0 0.00 0.00 0.00 55 1013.5
20260505195021 60 179 2.0 4.0 0.00 0.00 0.00 54 1013.5
20260505194021 61 171 3.0 7.0 0.00 0.00 0.00 52 1013.4
20260505193016 62 150 3.0 7.0 0.00 0.00 0.00 51 1013.3
20260505192024 61 164 3.0 6.0 0.00 0.00 0.00 52 1013.2
20260505191032 61 174 2.0 4.0 0.00 0.00 0.00 52 1013.0
20260505190027 62 146 3.0 7.0 0.00 0.00 0.00 52 1013.0
20260505185030 62 156 4.0 8.0 0.00 0.00 0.00 52 1012.8
20260505184044 63 143 4.0 7.0 0.00 0.00 0.00 51 1012.7
20260505183048 64 160 4.0 8.0 0.00 0.00 0.00 47 1012.6
20260505182033 65 168 2.0 6.0 0.00 0.00 0.00 46 1012.6
20260505181036 66 161 6.0 10.0 0.00 0.00 0.00 44 1012.4
20260505180020 67 164 7.0 14.0 0.00 0.00 0.00 43 1012.5
20260505175109 66 160 6.0 11.0 0.00 0.00 0.00 44 1012.3
20260505174021 67 165 7.0 15.0 0.00 0.00 0.00 43 1012.3
20260505173030 67 163 9.0 18.0 0.00 0.00 0.00 42 1012.3
20260505172038 67 154 8.0 15.0 0.00 0.00 0.00 42 1012.3
20260505171019 67 171 7.0 14.0 0.00 0.00 0.00 42 1012.3
20260505170021 68 162 9.0 18.0 0.00 0.00 0.00 41 1012.4
20260505165056 69 155 8.0 18.0 0.00 0.00 0.00 40 1012.3
20260505164113 69 160 8.0 15.0 0.00 0.00 0.00 40 1012.5
20260505163017 69 154 10.0 23.0 0.00 0.00 0.00 40 1012.6
20260505162053 68 162 8.0 14.0 0.00 0.00 0.00 40 1012.5
20260505161017 69 168 6.0 14.0 0.00 0.00 0.00 40 1012.4
20260505153019 71 194 8.0 16.0 0.00 0.00 0.00 39 1012.5
20260505152101 70 172 8.0 16.0 0.00 0.00 0.00 40 1012.5
20260505151016 71 164 7.0 15.0 0.00 0.00 0.00 40 1012.5
20260505125019 70 158 6.0 16.0 0.00 0.00 0.00 37 1012.4
20260505124022 71 157 7.0 14.0 0.00 0.00 0.00 37 1012.4
20260505123017 71 198 6.0 11.0 0.00 0.00 0.00 37 1012.4
20260505122044 71 160 8.0 16.0 0.00 0.00 0.00 37 1012.3
20260505121033 71 183 7.0 15.0 0.00 0.00 0.00 38 1012.4
20260505120041 71 174 10.0 17.0 0.00 0.00 0.00 37 1012.5
20260505115049 71 161 10.0 17.0 0.00 0.00 0.00 37 1012.6
20260505114023 71 166 8.0 16.0 0.00 0.00 0.00 37 1012.7
20260505113036 71 188 7.0 17.0 0.00 0.00 0.00 36 1012.6
20260505112020 72 160 10.0 16.0 0.00 0.00 0.00 36 1012.4
20260505111029 72 165 9.0 19.0 0.00 0.00 0.00 35 1012.6
20260505102032 74 183 5.0 10.0 0.00 0.00 0.00 33 1012.5
20260505101029 74 164 7.0 15.0 0.00 0.00 0.00 33 1012.2
20260505100034 75 187 6.0 11.0 0.00 0.00 0.00 32 1012.5
20260505095030 74 163 8.0 14.0 0.00 0.00 0.00 32 1012.5
20260505084526 73 147 7.0 14.0 0.00 0.00 0.00 31 1013.2
20260505083545 72 136 8.0 15.0 0.00 0.00 0.00 32 1013.3
20260505082532 71 42 3.0 7.0 0.00 0.00 0.00 41 1013.4
20260505081521 70 117 3.0 6.0 0.00 0.00 0.00 38 1013.6
20260505080533 67 3 3.0 7.0 0.00 0.00 0.00 43 1013.7
20260505075521 66 341 2.0 4.0 0.00 0.00 0.00 46 1014.1
20260505074552 63 349 3.0 6.0 0.00 0.00 0.00 50 1014.3
20260505073532 62 339 2.0 4.0 0.00 0.00 0.00 56 1014.5
20260505072533 60 13 0.0 2.0 0.00 0.00 0.00 57 1014.8
20260505071528 60 342 2.0 4.0 0.00 0.00 0.00 57 1014.8
20260505070529 60 335 2.0 3.0 0.00 0.00 0.00 55 1014.9
20260505065527 59 21 1.0 3.0 0.00 0.00 0.00 56 1015.1
20260505064529 58 12 0.0 1.0 0.00 0.00 0.00 59 1015.2
20260505063523 55 335 2.0 4.0 0.00 0.00 0.00 63 1015.2
20260505062526 56 12 2.0 4.0 0.00 0.00 0.00 62 1015.4
20260505061524 54 330 4.0 6.0 0.00 0.00 0.00 64 1015.4
20260505060526 56 19 2.0 3.0 0.00 0.00 0.00 67 1015.3
20260505055524 56 35 0.0 1.0 0.00 0.00 0.00 65 1015.4
20260505054525 54 6 1.0 2.0 0.00 0.00 0.00 68 1015.4
20260505053521 52 27 0.0 1.0 0.00 0.00 0.00 70 1015.4
20260505052540 52 7 0.0 2.0 0.00 0.00 0.00 67 1015.5
20260505051517 50 242 2.0 3.0 0.00 0.00 0.00 72 1015.5
20260505050521 50 317 1.0 1.0 0.00 0.00 0.00 70 1015.6
20260505041532 49 60 1.0 2.0 0.00 0.00 0.00 75 1016.0
20260505040612 48 283 1.0 2.0 0.00 0.00 0.00 73 1016.0
20260505035518 48 339 1.0 2.0 0.00 0.00 0.00 75 1016.1
20260505034532 49 331 1.0 2.0 0.00 0.00 0.00 72 1016.0
20260505033552 50 196 1.0 2.0 0.00 0.00 0.00 72 1016.0
20260505032532 50 229 1.0 3.0 0.00 0.00 0.00 71 1015.9
20260505031532 50 222 1.0 3.0 0.00 0.00 0.00 74 1016.0
20260505030532 50 351 0.0 1.0 0.00 0.00 0.00 73 1016.1
20260505025533 50 40 1.0 2.0 0.00 0.00 0.00 72 1016.2
20260505024533 52 243 2.0 3.0 0.00 0.00 0.00 67 1016.1
20260505023532 51 325 1.0 2.0 0.00 0.00 0.00 71 1016.2
20260505022605 52 32 0.0 1.0 0.00 0.00 0.00 71 1016.2
20260505021524 52 281 1.0 3.0 0.00 0.00 0.00 70 1016.4
20260505020546 52 218 2.0 3.0 0.00 0.00 0.00 68 1016.4
20260505015527 52 32 0.0 1.0 0.00 0.00 0.00 69 1016.5
20260505014549 53 344 1.0 1.0 0.00 0.00 0.00 65 1016.4
20260505013547 54 278 1.0 2.0 0.00 0.00 0.00 64 1016.3
20260505012532 54 264 0.0 2.0 0.00 0.00 0.00 66 1016.5
20260505011521 56 269 0.0 2.0 0.00 0.00 0.00 60 1016.6
20260505010532 55 258 2.0 3.0 0.00 0.00 0.00 61 1016.6
20260505005521 54 249 1.0 2.0 0.00 0.00 0.00 66 1016.6
20260505004533 54 61 1.0 2.0 0.00 0.00 0.00 68 1016.7
20260505003520 55 285 1.0 2.0 0.00 0.00 0.00 64 1016.8
20260505002551 55 345 0.0 1.0 0.00 0.00 0.00 65 1016.8